Track STARLINK-3573 now! 10-day predictions STARLINK-3573 is classified as:
1 51794U 22017AC 22220.91667824 -.00016504 00000-0 -10206-2 0 9998 2 51794 53.2167 104.4445 0001580 69.6082 260.6756 15.08861328 1307